Weather History for KSAV - November, 2013

Change the Weather History Date:

Friday, November 8, 2013

  Actual Average Record
Temperature  
Mean Temperature 55 °F 61 °F  
Max Temperature 66 °F 73 °F 86 °F (1986)
Min Temperature 43 °F 50 °F 27 °F (1967)
Degree Days  
Heating Degree Days 10 5  
Month to date heating degree days 28 36  
Since 1 July heating degree days 62 93  
Cooling Degree Days 0 2  
Month to date cooling degree days 19 16  
Year to date cooling degree days 2430 2428  
Growing Degree Days 4 (Base 50)    
Moisture  
Dew Point 37 °F    
Average Humidity 59    
Maximum Humidity 89    
Minimum Humidity 28    
Precipitation  
Precipitation 0.00 in 0.08 in 1.80 in (1913)
Month to date precipitation 1.05 0.62  
Year to date precipitation 50.23 43.26  
Sea Level Pressure  
Sea Level Pressure 30.22 in    
Wind  
Wind Speed 8 mph (NNE)    
Max Wind Speed 20 mph    
Max Gust Speed 26 mph    
Visibility 10 miles    
Events      
T = Trace of Precipitation, MM = Missing Value Source: NWS Daily Summary

Daily Weather History Graph

Daily Weather History Graph

Search for Another Location

Airport or City:

Trip Planner

Search our weather history database for the weather conditions in past years. The results will help you decide how hot, cold, wet, or windy it might be!

Date:

Astronomy

Nov. 08, 2013 Rise Set
Actual Time 6:47 AM EST 5:28 PM EST
Civil Twilight 6:22 AM EST 5:54 PM EST
Nautical Twilight 5:52 AM EST 6:23 PM EST
Astronomical Twilight 5:24 AM EST 6:52 PM EST
Moon 11:42 AM EST (11/8) 10:47 PM EST (11/8)
Length of Visible Light 11h 32m
Length of Day
10h 41m
Waxing Crescent, 33% of the Moon is Illuminated
Nov 8
Waxing Crescent
Nov 10
First Quarter
Nov 17
Full
Nov 25
Last Quarter
Dec 2
New

Hourly Weather History & Observations

Time (EST) Temp. Windchill Dew Point Humidity Pressure Visibility Wind Dir Wind Speed Gust Speed Precip Events Conditions
12:53 AM 57.9 °F - 45.0 °F 62% 30.08 in 10.0 mi NNW 11.5 mph - N/A   Clear
1:53 AM 55.9 °F - 42.1 °F 60% 30.10 in 10.0 mi NNW 11.5 mph - N/A   Clear
2:53 AM 54.0 °F - 39.9 °F 59% 30.12 in 10.0 mi North 10.4 mph - N/A   Clear
3:53 AM 52.0 °F - 39.0 °F 61% 30.14 in 10.0 mi North 8.1 mph - N/A   Clear
4:53 AM 52.0 °F - 37.0 °F 57% 30.16 in 10.0 mi North 15.0 mph 19.6 mph N/A   Scattered Clouds
5:53 AM 50.0 °F - 37.0 °F 61% 30.19 in 10.0 mi NNE 8.1 mph - N/A   Scattered Clouds
6:53 AM 48.0 °F - 37.0 °F 66% 30.22 in 10.0 mi North 8.1 mph - N/A   Scattered Clouds
7:53 AM 51.1 °F - 36.0 °F 56% 30.25 in 10.0 mi NNE 9.2 mph - N/A   Scattered Clouds
8:53 AM 54.0 °F - 35.1 °F 49% 30.26 in 10.0 mi NE 13.8 mph 24.2 mph N/A   Partly Cloudy
9:53 AM 57.0 °F - 34.0 °F 42% 30.28 in 10.0 mi NNE 9.2 mph 20.7 mph N/A   Partly Cloudy
10:53 AM 60.1 °F - 33.1 °F 36% 30.28 in 10.0 mi NNE 15.0 mph 18.4 mph N/A   Partly Cloudy
11:53 AM 63.0 °F - 32.0 °F 31% 30.27 in 10.0 mi NNE 11.5 mph 19.6 mph N/A   Partly Cloudy
12:53 PM 64.0 °F - 30.9 °F 29% 30.24 in 10.0 mi North 11.5 mph - N/A   Partly Cloudy
1:53 PM 64.9 °F - 32.0 °F 29% 30.22 in 10.0 mi North 11.5 mph 19.6 mph N/A   Partly Cloudy
2:53 PM 64.9 °F - 30.9 °F 28% 30.22 in 10.0 mi NNE 10.4 mph - N/A   Partly Cloudy
3:53 PM 64.9 °F - 30.9 °F 28% 30.22 in 10.0 mi North 6.9 mph - N/A   Clear
4:53 PM 62.1 °F - 32.0 °F 32% 30.23 in 10.0 mi NE 6.9 mph - N/A   Clear
5:53 PM 54.0 °F - 35.1 °F 49% 30.24 in 10.0 mi NNE 4.6 mph - N/A   Partly Cloudy
6:53 PM 50.0 °F - 39.0 °F 66% 30.26 in 10.0 mi Calm Calm - N/A   Partly Cloudy
7:53 PM 46.9 °F - 39.9 °F 77% 30.27 in 10.0 mi NNE 4.6 mph - N/A   Clear
8:53 PM 46.9 °F - 39.0 °F 74% 30.29 in 10.0 mi NNE 3.5 mph - N/A   Clear
9:53 PM 43.0 °F 41.3 °F 39.0 °F 86% 30.29 in 10.0 mi NE 3.5 mph - N/A   Clear
10:53 PM 46.0 °F - 37.9 °F 73% 30.29 in 10.0 mi Calm Calm - N/A   Clear
11:53 PM 44.1 °F - 39.9 °F 85% 30.29 in 10.0 mi Calm Calm - N/A   Clear